Location: Maiden_LMO
(35.5760°N, 81.2120°W)
Time: 11:14:02
(UTC-05:00)

ADEOS II - Visible Passes

Search period start: 12 February 2016 00:00
Search period end: 22 February 2016 00:00
Orbit: 800 x 802 km, 98.3° (Epoch: 11 February)

Date Brightness Start Highest point End Pass type
(mag) Time Alt. Az. Time Alt. Az. Time Alt. Az.
12 Feb 2.9 04:47:58 10° NNE 04:53:04 49° E 04:58:09 10° S visible
12 Feb 3.4 06:28:52 10° NNW 06:32:23 18° WNW 06:35:53 10° WSW visible
13 Feb 4.0 04:22:14 10° NE 04:26:40 27° E 04:31:04 10° SSE visible
13 Feb 2.8 06:01:44 10° N 06:06:20 32° WNW 06:10:56 10° SW visible
14 Feb 4.8 03:57:16 10° ENE 04:00:10 15° E 04:03:02 10° SE visible
14 Feb 2.1 05:35:03 10° N 05:40:12 57° WNW 05:45:20 10° SSW visible
15 Feb 2.1 05:08:40 10° NNE 05:13:58 81° ESE 05:19:13 10° S visible
16 Feb 3.1 04:42:36 10° NNE 04:47:37 44° E 04:52:37 10° S visible
16 Feb 3.3 06:23:13 10° NNW 06:27:00 20° WNW 06:30:46 10° WSW visible
17 Feb 4.1 04:16:58 10° NE 04:21:12 24° E 04:25:24 10° SSE visible
17 Feb 2.6 05:56:11 10° N 06:00:56 35° WNW 06:05:40 10° SW visible
18 Feb 4.9 03:52:15 10° ENE 03:54:40 13° E 03:57:03 10° ESE visible
18 Feb 2.0 05:29:34 10° N 05:34:46 63° WNW 05:39:57 10° SSW visible
19 Feb 2.2 05:03:14 10° NNE 05:08:31 72° ESE 05:13:45 10° S visible
20 Feb 3.3 04:37:14 10° NNE 04:42:10 39° E 04:47:02 10° SSE visible
20 Feb 3.2 06:17:35 10° NNW 06:21:36 23° WNW 06:25:36 10° WSW visible
21 Feb 4.3 04:11:42 10° NE 04:15:43 22° E 04:19:41 10° SE visible
21 Feb 2.5 05:50:39 10° N 05:55:31 39° WNW 06:00:22 10° SW visible
